Theta_e
308 307 306 303 301 302 302 302 303 304 304 304 304 303 304 304 305 306 307 308 309 310 310 310 312 313 316 322 325 327 328 328 328 331 331 331 331 332 330 330 329 327 327
306 303 301 300 301 302 303 303 304 304 304 304 305 305 306 307 308 308 309 309 310 311 312 311 312 314 316 319 322 323 326 327 329 329 330 330 329 330 329 329 326 322 321
302 300 300 301 301 301 302 303 304 304 304 305 306 307 309 310 310 311 310 311 311 312 312 312 314 315 319 321 324 324 324 326 327 328 329 328 329 326 326 323 321 320 318
300 299 301 301 301 301 301 302 303 304 305 306 307 308 309 312 314 316 314 312 312 312 313 312 312 314 316 318 322 324 325 326 326 331 329 328 327 325 324 324 320 317 312
299 300 300 300 301 301 301 301 303 304 305 306 307 309 312 316 317 317 317 315 313 314 313 313 314 316 319 321 324 326 326 327 328 326 328 326 326 324 322 319 317 312 307
299 299 300 301 301 301 301 302 303 304 304 305 306 309 313 315 319 320 317 315 314 315 315 316 317 320 322 324 325 325 327 327 327 327 327 325 324 323 318 314 310 309 310
299 300 301 301 301 301 301 302 302 303 303 304 305 307 310 311 316 317 315 315 315 316 317 319 321 322 324 326 327 328 327 327 326 326 326 324 320 315 311 310 310 308 308
299 300 300 301 301 301 301 302 302 302 302 303 304 305 306 308 312 314 315 316 316 316 317 319 320 322 323 324 324 323 321 318 317 317 317 314 312 309 307 307 308 308 308
299 299 300 300 300 301 301 302 302 302 303 303 304 304 305 305 309 311 313 313 313 312 313 314 315 315 316 317 319 316 313 310 308 308 307 307 307 307 306 306 306 306 307
299 299 299 300 300 301 301 302 302 303 303 303 304 305 305 306 307 309 310 310 310 310 309 309 310 310 310 311 311 309 308 307 307 307 307 306 306 306 306 306 306 305 305
298 299 300 300 299 298 300 301 301 302 303 304 303 304 304 305 305 305 306 307 307 306 307 307 307 307 308 308 308 307 307 307 307 306 307 306 306 306 306 305 306 306 306
298 299 299 299 299 299 299 299 301 303 303 303 305 305 305 306 306 307 307 307 307 308 308 309 309 309 309 309 309 308 308 307 306 306 306 306 305 305 305 304 304 305 305
298 299 299 299 298 297 301 300 300 300 300 302 302 304 305 305 306 306 307 308 308 309 309 309 309 309 309 308 308 307 307 307 306 306 305 304 304 304 303 303 303 303 304
297 297 297 297 298 298 298 299 299 299 298 299 300 302 304 305 305 305 305 306 307 307 307 308 307 307 307 307 307 306 306 305 305 304 304 303 303 303 303 303 303 304 304
297 297 297 298 298 298 298 297 297 297 297 297 298 299 300 300 302 301 301 302 304 306 306 306 306 305 304 304 304 304 303 303 303 303 303 303 303 303 303 303 303 303 303
297 297 297 297 297 297 297 297 297 296 296 296 296 296 297 299 300 300 301 301 302 303 305 304 303 303 302 302 302 302 302 302 302 302 302 303 303 303 304 303 303 302 301
296 297 297 297 297 296 296 296 296 296 296 296 295 295 294 295 296 298 299 299 300 299 300 300 300 300 300 300 300 301 301 302 302 303 303 303 303 303 303 303 302 300 300
296 297 297 296 296 296 296 295 295 294 293 292 292 292 292 293 294 294 296 297 297 299 299 299 299 299 299 300 300 301 302 302 303 303 303 303 303 302 302 301 300 299 300
296 296 296 296 296 296 295 294 294 293 292 291 291 293 294 294 295 295 297 298 298 297 297 298 299 299 299 300 301 302 302 303 303 303 303 302 302 301 300 300 299 300 300
296 297 297 297 297 296 295 294 292 291 289 289 290 292 294 295 296 296 296 297 298 298 298 298 299 299 300 301 302 302 303 303 303 303 302 301 300 299 299 299 299 300 301
297 297 297 296 296 295 295 294 293 292 290 289 291 293 294 295 296 296 297 297 297 297 297 298 298 300 301 302 302 303 303 302 302 301 300 299 298 298 297 298 299 300 301
297 297 296 296 296 295 295 295 294 292 290 288 289 292 294 295 296 296 297 296 296 296 298 299 301 302 302 302 302 302 302 302 301 300 299 297 296 296 296 297 298 300 302
297 296 296 296 296 296 295 294 293 292 289 288 290 292 294 295 296 296 296 296 296 297 298 300 301 301 302 302 301 302 301 301 300 298 297 296 295 295 295 296 298 300 302
297 296 296 296 296 296 295 294 293 290 289 289 289 291 293 294 295 296 296 296 296 297 298 300 300 301 301 301 301 300 300 299 298 298 297 295 294 294 295 297 299 301 302
296 296 296 296 295 295 295 294 292 290 289 288 288 289 291 293 295 296 297 297 296 297 299 300 301 301 301 300 300 299 298 298 297 297 296 296 295 295 296 297 299 301 302
296 295 295 295 295 295 294 293 292 290 289 288 288 289 289 290 292 295 297 297 298 298 299 300 300 300 300 299 298 298 298 297 297 296 296 295 295 296 296 298 299 301 302
Wind_Speed
49 47 44 38 35 32 32 32 32 33 32 32 31 30 29 28 25 26 26 24 24 24 24 24 23 27 31 28 25 24 21 20 23 19 19 17 18 16 16 17 17 17 15
46 42 37 33 31 30 29 30 31 32 31 30 29 28 27 25 23 23 25 24 22 21 21 20 20 19 25 28 27 25 23 20 20 22 20 19 18 17 17 19 19 17 16
38 35 33 31 30 29 30 31 30 30 29 28 26 24 23 22 22 22 23 22 22 21 20 21 18 17 17 20 22 25 25 23 21 23 22 21 19 20 21 20 18 17 15
34 32 30 31 29 30 30 29 29 28 28 27 25 22 21 21 18 16 16 18 18 17 16 18 20 19 20 18 19 21 22 22 22 21 21 21 22 23 20 19 16 12 10
31 30 30 29 28 29 28 28 27 26 25 24 23 21 20 18 15 15 12 11 12 11 10 11 14 16 13 14 16 15 17 18 18 18 20 22 24 23 21 17 14 11 11
29 28 27 27 28 28 28 27 26 24 24 24 22 21 22 21 15 8 5 3 7 8 7 8 8 8 9 11 13 14 13 13 16 20 22 21 20 21 20 13 10 10 8
27 25 25 26 27 27 27 25 25 24 24 24 23 24 25 24 14 7 8 7 8 6 6 5 7 6 8 10 12 12 15 16 16 19 20 18 18 13 10 9 7 7 9
25 22 23 25 26 26 26 25 25 25 26 26 24 25 25 24 13 12 8 5 6 4 4 6 7 10 12 11 12 15 17 16 14 13 12 12 9 9 7 7 7 7 7
23 21 22 23 24 24 24 25 25 27 27 28 26 27 28 25 16 13 14 14 16 17 17 16 19 21 18 18 18 20 20 20 17 15 15 14 13 11 9 5 4 6 6
21 20 20 21 22 25 26 27 28 29 30 30 30 31 30 32 27 23 25 25 25 25 24 24 21 22 20 18 21 22 26 24 20 20 20 19 17 16 13 11 8 4 2
18 18 21 23 24 25 24 27 28 28 28 32 32 33 34 35 32 30 27 28 29 31 30 28 28 26 26 24 22 21 24 21 19 17 15 13 12 10 6 4 1 1 3
20 21 23 24 25 24 25 27 29 31 32 33 32 32 33 34 33 31 30 28 25 27 27 24 22 20 20 18 16 17 16 14 14 12 12 12 9 6 5 6 9 4 2
24 24 23 24 25 26 21 28 28 29 29 32 29 29 28 29 28 26 27 27 27 26 22 19 16 15 15 18 17 15 13 13 12 10 9 6 5 5 5 8 9 8 6
29 26 22 22 24 23 24 26 28 29 30 29 27 27 28 24 23 23 22 20 19 20 20 20 20 18 17 17 15 15 13 10 8 6 5 5 5 6 7 6 5 5 6
22 23 21 17 17 21 23 24 25 26 26 26 26 23 22 23 23 19 18 17 13 14 13 15 16 16 17 16 14 12 9 7 7 7 6 5 5 4 7 9 10 9 5
21 22 20 19 19 18 18 19 19 20 21 22 21 20 20 17 13 15 16 15 13 7 7 14 15 15 14 13 13 13 11 9 8 6 4 4 6 8 9 10 9 8 5
20 19 18 18 18 16 15 15 16 17 18 19 21 20 18 14 12 12 12 12 13 14 22 20 19 18 16 15 14 11 10 8 6 7 8 9 10 10 9 9 9 7 7
16 19 19 19 20 19 19 18 18 19 21 23 22 20 19 17 14 11 9 5 13 17 18 18 18 17 15 13 12 10 9 9 10 11 11 11 11 11 10 9 8 7 7
12 15 17 18 19 20 20 20 20 20 21 21 21 22 21 19 18 18 18 22 22 20 17 15 15 15 14 13 11 11 11 12 13 12 12 11 9 10 11 9 6 6 7
9 13 15 13 18 20 21 22 22 23 23 24 24 23 20 19 24 25 24 23 22 21 19 18 15 14 13 13 12 12 13 13 13 13 13 11 10 9 8 6 5 5 7
10 14 15 17 19 20 21 23 23 24 24 23 24 22 21 23 24 24 24 24 23 21 20 17 15 15 15 17 16 15 15 15 15 15 14 13 11 9 6 4 3 6 8
11 13 14 16 17 19 20 21 22 22 22 21 21 20 20 22 23 23 23 22 21 21 20 20 19 18 17 18 18 19 19 18 18 17 16 13 10 7 4 3 5 9 10
9 11 12 14 17 18 19 20 20 21 21 21 21 21 21 21 21 21 21 20 21 21 19 18 18 19 20 20 20 20 21 20 19 18 16 14 10 6 4 6 9 11 12
8 9 10 12 14 17 18 19 20 20 20 20 21 21 21 21 20 20 20 20 21 20 19 18 18 19 20 20 21 22 22 20 18 17 15 12 8 6 6 9 12 13 14
10 9 10 11 13 15 16 18 19 19 19 19 20 20 20 21 21 21 20 19 19 19 20 20 20 21 22 23 24 22 20 19 18 17 14 12 9 8 9 12 13 15 16
8 9 10 11 13 14 16 17 18 18 18 19 20 20 20 21 21 21 21 19 19 20 20 20 21 22 24 25 25 22 21 20 19 17 14 12 10 10 11 14 15 16 17
Wind_Direction
322 323 325 328 329 328 330 330 328 326 324 319 314 307 299 292 286 277 268 265 263 261 260 265 260 245 241 237 236 238 245 247 253 261 260 245 237 230 221 227 232 225 221
328 331 334 336 335 336 335 337 337 333 329 324 319 313 308 301 290 278 270 262 258 258 259 259 254 246 241 237 239 241 247 251 258 254 260 250 230 217 212 214 203 208 222
338 341 342 344 344 341 342 342 337 336 334 331 325 318 312 304 295 282 270 262 255 251 252 247 239 229 231 231 233 241 246 250 255 253 248 240 206 198 198 196 203 214 224
347 347 349 349 348 347 345 341 341 342 342 340 338 332 326 319 312 295 274 263 252 245 247 242 234 240 242 237 236 242 242 243 250 245 233 221 199 194 203 207 209 218 219
348 352 352 350 350 351 348 347 348 349 349 346 345 349 349 336 313 297 285 259 233 223 231 230 228 235 226 231 238 239 238 238 243 233 215 195 190 194 201 206 208 213 229
353 352 351 353 356 356 357 357 358 359 1 3 4 3 1 350 321 286 261 213 196 199 228 232 221 216 218 219 226 227 228 225 216 210 199 193 195 201 202 200 204 212 226
352 353 357 360 1 4 7 7 9 12 15 16 17 19 15 21 46 63 113 138 163 196 233 213 204 215 208 215 210 198 198 210 214 203 201 188 186 186 190 202 219 201 194
356 360 5 7 10 12 17 19 23 26 29 29 30 33 30 31 44 59 68 107 163 176 193 191 180 155 140 143 148 140 124 118 117 127 144 146 159 170 178 166 170 175 171
6 6 12 14 19 25 31 33 37 42 45 47 46 52 54 54 54 68 82 94 98 98 100 104 108 106 109 119 129 124 118 110 113 118 118 115 115 115 109 103 129 165 168
11 13 23 29 41 45 45 45 47 52 55 57 59 62 65 67 67 77 93 97 96 96 96 95 93 97 99 105 109 113 110 106 107 104 99 95 92 86 82 80 82 95 127
25 35 51 56 55 51 49 52 51 51 56 59 61 62 64 65 68 69 71 80 86 89 87 88 90 94 97 100 102 105 101 104 99 92 92 91 90 89 87 71 21 205 207
53 61 65 62 52 49 51 52 50 52 53 58 63 62 59 60 62 64 68 74 83 90 92 93 93 96 101 102 99 95 96 97 93 92 96 87 77 64 41 5 355 355 300
57 58 58 55 44 34 52 53 55 53 57 55 55 59 62 60 61 61 64 66 74 82 88 91 98 97 97 98 95 96 99 96 95 87 77 69 48 29 8 358 353 350 325
48 42 33 32 40 53 56 53 50 49 49 51 53 53 58 62 65 60 60 65 73 80 87 91 93 93 94 97 96 91 80 75 74 72 59 42 22 5 352 347 326 324 306
31 35 43 51 49 48 50 50 45 44 43 45 47 49 48 50 50 39 36 42 59 87 95 98 96 93 86 81 79 79 70 64 59 45 35 16 347 328 331 339 344 341 338
33 36 44 49 47 44 45 49 51 48 42 43 42 38 43 47 42 42 42 50 62 86 105 85 77 70 64 59 63 64 64 56 50 35 359 332 337 348 355 357 359 358 4
30 35 38 35 32 31 35 37 41 37 35 35 35 33 37 37 34 36 40 42 61 73 76 71 72 67 64 61 55 54 53 43 25 11 20 18 12 3 359 3 12 25 44
42 43 37 33 31 32 33 34 33 34 37 38 36 36 40 43 47 49 50 45 69 66 68 66 63 59 63 59 52 49 42 30 24 15 13 11 13 20 14 18 27 48 77
49 42 33 31 30 30 33 36 38 41 46 49 51 51 50 53 58 63 64 64 63 63 63 63 61 58 54 43 38 32 21 16 9 7 6 10 19 27 26 26 38 67 99
52 30 20 26 26 29 33 36 39 43 46 47 49 48 49 54 56 56 58 59 59 59 57 57 56 53 42 35 29 17 11 10 11 6 5 7 8 10 16 29 46 92 112
36 27 32 32 32 30 35 37 36 36 39 42 46 47 47 50 52 53 54 53 53 52 51 51 50 48 34 27 26 23 19 15 11 9 7 4 2 0 5 28 77 117 120
30 31 32 33 32 34 34 32 31 33 38 43 45 48 49 51 52 53 51 51 50 49 46 46 43 37 27 22 20 18 15 11 7 6 4 2 1 8 26 84 120 128 125
36 37 34 32 31 31 30 31 30 33 38 41 42 45 46 48 49 50 51 52 50 46 45 41 35 30 25 22 19 15 11 9 5 2 0 359 6 31 59 116 125 126 126
37 32 28 27 27 28 30 30 31 34 39 41 43 44 46 46 47 48 48 48 47 43 40 36 32 26 20 18 17 14 12 7 4 3 5 10 26 46 83 125 129 129 129
48 39 32 29 29 29 29 33 36 36 39 41 42 43 45 47 48 47 46 47 46 41 38 35 31 27 24 20 16 12 10 8 8 10 16 26 44 64 98 128 132 131 130
48 43 32 32 34 34 37 39 38 38 40 40 39 40 41 43 45 46 45 46 49 41 36 33 32 31 26 20 17 15 13 14 15 18 24 37 57 77 109 129 132 133 129